TimeCDT,TemperatureF,Dew PointF,Humidity,Sea Level PressureIn,VisibilityMPH,Wind Direction,Wind SpeedMPH,Gust SpeedMPH,PrecipitationIn,Events,Conditions,WindDirDegrees,DateUTC
12:17 AM,73.4,60.8,65,29.88,10.0,SSE,15.0,26.5,N/A,,Scattered Clouds,150,2013-05-26 05:17:00
12:37 AM,73.4,60.8,65,29.87,10.0,SSE,19.6,26.5,N/A,,Clear,160,2013-05-26 05:37:00
12:57 AM,73.4,62.6,69,29.89,10.0,South,23.0,29.9,N/A,,Clear,180,2013-05-26 05:57:00
1:17 AM,71.6,62.6,73,29.90,10.0,South,26.5,39.1,N/A,,Clear,180,2013-05-26 06:17:00
1:37 AM,69.8,62.6,78,29.89,10.0,South,20.7,27.6,N/A,,Clear,180,2013-05-26 06:37:00
1:57 AM,69.8,62.6,78,29.87,10.0,South,16.1,20.7,N/A,,Clear,180,2013-05-26 06:57:00
2:17 AM,69.8,62.6,78,29.86,10.0,South,16.1,-,N/A,,Clear,190,2013-05-26 07:17:00
2:37 AM,69.8,62.6,78,29.86,10.0,South,17.3,25.3,N/A,,Clear,190,2013-05-26 07:37:00
2:57 AM,69.8,62.6,78,29.87,10.0,South,15.0,-,N/A,,Clear,180,2013-05-26 07:57:00
3:17 AM,69.8,62.6,78,29.86,10.0,South,16.1,19.6,N/A,,Clear,170,2013-05-26 08:17:00
3:37 AM,68.0,62.6,83,29.86,10.0,South,13.8,19.6,N/A,,Clear,180,2013-05-26 08:37:00
3:57 AM,68.0,62.6,83,29.85,10.0,South,12.7,-,N/A,,Clear,170,2013-05-26 08:57:00
4:17 AM,68.0,62.6,83,29.85,10.0,South,12.7,18.4,N/A,,Clear,170,2013-05-26 09:17:00
4:37 AM,66.2,62.6,88,29.84,10.0,SSE,11.5,-,N/A,,Clear,160,2013-05-26 09:37:00
4:57 AM,66.2,62.6,88,29.84,10.0,South,12.7,-,N/A,,Clear,170,2013-05-26 09:57:00
5:17 AM,66.2,62.6,88,29.83,10.0,South,13.8,-,N/A,,Clear,190,2013-05-26 10:17:00
5:37 AM,66.2,62.6,88,29.82,10.0,South,13.8,18.4,N/A,,Clear,170,2013-05-26 10:37:00
5:57 AM,64.4,62.6,94,29.82,10.0,SSW,11.5,-,N/A,,Clear,200,2013-05-26 10:57:00
6:17 AM,64.4,62.6,94,29.85,10.0,South,10.4,-,N/A,,Clear,190,2013-05-26 11:17:00
6:37 AM,66.2,62.6,88,29.85,10.0,SE,9.2,-,N/A,,Clear,140,2013-05-26 11:37:00
6:57 AM,64.4,62.6,94,29.85,10.0,SE,9.2,-,N/A,,Clear,140,2013-05-26 11:57:00
7:19 AM,66.2,62.6,88,29.84,10.0,SSE,10.4,-,N/A,,Clear,150,2013-05-26 12:19:00
7:37 AM,66.2,64.4,94,29.85,10.0,SSE,12.7,17.3,N/A,,Clear,150,2013-05-26 12:37:00
7:57 AM,66.2,64.4,94,29.85,10.0,SSE,11.5,-,N/A,,Clear,150,2013-05-26 12:57:00
8:17 AM,68.0,64.4,88,29.85,10.0,SE,12.7,-,N/A,,Clear,140,2013-05-26 13:17:00
8:37 AM,69.8,64.4,83,29.85,10.0,SE,10.4,-,N/A,,Clear,130,2013-05-26 13:37:00
8:57 AM,69.8,64.4,83,29.86,10.0,ESE,11.5,-,N/A,,Clear,120,2013-05-26 13:57:00
9:17 AM,69.8,64.4,83,29.87,10.0,ESE,10.4,-,N/A,,Clear,120,2013-05-26 14:17:00
9:37 AM,69.8,64.4,83,29.87,10.0,SE,10.4,-,N/A,,Clear,130,2013-05-26 14:37:00
9:57 AM,71.6,62.6,73,29.86,10.0,SE,13.8,-,N/A,,Clear,130,2013-05-26 14:57:00
10:17 AM,73.4,64.4,73,29.86,10.0,SE,16.1,20.7,N/A,,Clear,140,2013-05-26 15:17:00
10:37 AM,75.2,64.4,69,29.85,10.0,SSE,17.3,23.0,N/A,,Clear,150,2013-05-26 15:37:00
10:57 AM,78.8,62.6,57,29.85,10.0,SE,15.0,26.5,N/A,,Clear,140,2013-05-26 15:57:00
11:17 AM,78.8,62.6,57,29.86,10.0,South,17.3,23.0,N/A,,Clear,170,2013-05-26 16:17:00
11:37 AM,80.6,62.6,54,29.85,10.0,SSE,17.3,25.3,N/A,,Clear,150,2013-05-26 16:37:00
11:59 AM,80.6,62.6,54,29.85,10.0,SE,16.1,21.9,N/A,,Clear,140,2013-05-26 16:59:00
12:17 PM,82.4,62.6,51,29.84,10.0,SE,18.4,25.3,N/A,,Clear,140,2013-05-26 17:17:00
12:37 PM,82.4,62.6,51,29.84,10.0,SSE,16.1,28.8,N/A,,Clear,160,2013-05-26 17:37:00
12:59 PM,82.4,64.4,54,29.85,10.0,SSE,18.4,21.9,N/A,,Scattered Clouds,150,2013-05-26 17:59:00
1:17 PM,82.4,64.4,54,29.85,10.0,SE,17.3,24.2,N/A,,Scattered Clouds,140,2013-05-26 18:17:00
1:41 PM,82.4,64.4,54,29.83,10.0,SSE,19.6,23.0,N/A,,Scattered Clouds,150,2013-05-26 18:41:00
1:57 PM,84.2,64.4,51,29.82,10.0,South,18.4,29.9,N/A,,Scattered Clouds,170,2013-05-26 18:57:00
2:17 PM,87.8,64.4,46,29.81,10.0,SSE,17.3,27.6,N/A,,Scattered Clouds,150,2013-05-26 19:17:00
2:37 PM,86.0,62.6,45,29.81,10.0,South,18.4,28.8,N/A,,Scattered Clouds,190,2013-05-26 19:37:00
2:59 PM,87.8,62.6,43,29.79,10.0,SSE,20.7,28.8,N/A,,Scattered Clouds,160,2013-05-26 19:59:00
3:17 PM,89.6,62.6,40,29.80,10.0,South,19.6,31.1,N/A,,Scattered Clouds,170,2013-05-26 20:17:00
3:37 PM,87.8,62.6,43,29.79,10.0,SSE,23.0,29.9,N/A,,Scattered Clouds,160,2013-05-26 20:37:00
3:57 PM,89.6,62.6,40,29.79,10.0,SSE,17.3,31.1,N/A,,Mostly Cloudy,160,2013-05-26 20:57:00
4:17 PM,89.6,62.6,40,29.78,10.0,SSE,23.0,31.1,N/A,,Mostly Cloudy,150,2013-05-26 21:17:00
4:37 PM,89.6,60.8,38,29.78,10.0,SSE,18.4,31.1,N/A,,Scattered Clouds,160,2013-05-26 21:37:00
4:57 PM,91.4,60.8,36,29.77,10.0,SSE,25.3,32.2,N/A,,Scattered Clouds,160,2013-05-26 21:57:00
5:17 PM,91.4,59.0,34,29.76,10.0,SSE,26.5,35.7,N/A,,Clear,150,2013-05-26 22:17:00
5:37 PM,89.6,60.8,38,29.76,10.0,SSE,23.0,34.5,N/A,,Clear,150,2013-05-26 22:37:00
5:57 PM,91.4,60.8,36,29.75,10.0,SSE,23.0,32.2,N/A,,Clear,160,2013-05-26 22:57:00
6:17 PM,89.6,60.8,38,29.75,10.0,SSE,26.5,35.7,N/A,,Clear,150,2013-05-26 23:17:00
6:39 PM,89.6,60.8,38,29.74,10.0,SSE,26.5,32.2,N/A,,Clear,160,2013-05-26 23:39:00
6:57 PM,89.6,60.8,38,29.74,10.0,SSE,25.3,34.5,N/A,,Clear,150,2013-05-26 23:57:00
7:19 PM,87.8,60.8,40,29.74,10.0,SSE,29.9,35.7,N/A,,Clear,150,2013-05-27 00:19:00
7:37 PM,87.8,62.6,43,29.73,10.0,SSE,27.6,35.7,N/A,,Clear,150,2013-05-27 00:37:00
7:57 PM,86.0,62.6,45,29.73,10.0,SSE,26.5,32.2,N/A,,Clear,160,2013-05-27 00:57:00
8:17 PM,84.2,60.8,45,29.73,10.0,SSE,25.3,35.7,N/A,,Clear,160,2013-05-27 01:17:00
8:39 PM,84.2,62.6,48,29.74,10.0,SSE,24.2,33.4,N/A,,Clear,160,2013-05-27 01:39:00
8:57 PM,82.4,64.4,54,29.74,10.0,SSE,23.0,33.4,N/A,,Clear,160,2013-05-27 01:57:00
9:19 PM,80.6,64.4,58,29.74,10.0,SSE,18.4,28.8,N/A,,Clear,160,2013-05-27 02:19:00
9:39 PM,80.6,64.4,58,29.73,10.0,SSE,21.9,27.6,N/A,,Clear,160,2013-05-27 02:39:00
9:57 PM,78.8,64.4,61,29.74,10.0,SSE,21.9,29.9,N/A,,Clear,160,2013-05-27 02:57:00
10:17 PM,78.8,64.4,61,29.75,10.0,SSE,18.4,27.6,N/A,,Clear,150,2013-05-27 03:17:00
10:37 PM,77.0,64.4,65,29.76,10.0,SSE,18.4,26.5,N/A,,Clear,160,2013-05-27 03:37:00
10:57 PM,77.0,66.2,69,29.75,10.0,SSE,17.3,24.2,N/A,,Clear,150,2013-05-27 03:57:00
11:17 PM,75.2,66.2,73,29.74,10.0,SSE,21.9,29.9,N/A,,Clear,160,2013-05-27 04:17:00
11:37 PM,75.2,66.2,73,29.74,10.0,South,19.6,27.6,N/A,,Clear,170,2013-05-27 04:37:00
11:57 PM,75.2,66.2,73,29.73,10.0,South,21.9,31.1,N/A,,Clear,170,2013-05-27 04:57:00